Date String (YYYY-MM-DD hh:mm:ss) UTC,Instrument flags,Ambient pressure (hPa),Sample flow (lpm),Bypass flow (lpm),Sample temperature (°C),Ambient temperature (°C),ASC tube jacket temperature (°C),LED temperature (°C),Box temperature (°C),Sample RH (%),Span deviation,Mass concentration (μg/m³),Mass concentration (μg/m³),Mass concentration (μg/m³)
DateTimeUTC,F1_M11,P_M11,Q1_M11,Q2_M11,T1_M11,T2_M11,T3_M11,T4_M11,T5_M11,U1_M11,ZSPAN_M11,X0_M11,X2_M11,X1_M11
2022-10-16 10:00:00,,0833.6,5.00,0.00,30.2,28.6,00.0,39.1,32.0,16.7,0000.0,0013.77,0008.10,0007.47
2022-10-16 10:01:00,,0833.6,5.00,0.00,30.2,28.7,00.0,39.1,32.0,16.7,0000.0,0013.91,0008.14,0007.47
2022-10-16 10:02:00,,0833.6,4.99,0.00,30.2,28.7,00.0,39.1,32.0,16.7,0000.0,0013.68,0008.10,0007.46
2022-10-16 10:03:00,,0833.6,5.01,0.00,30.2,28.6,00.0,39.1,32.0,16.7,0001.2,0013.55,0008.07,0007.44
2022-10-16 10:04:00,,0833.6,4.99,0.00,30.2,28.6,00.0,39.1,32.0,16.7,0002.2,0014.25,0008.08,0007.45
2022-10-16 10:05:00,,0833.6,5.00,0.00,30.2,28.6,00.0,39.1,32.0,16.8,0000.3,0014.65,0008.09,0007.46
2022-10-16 10:06:00,,0833.6,5.01,0.00,30.2,28.6,00.0,39.1,32.0,16.8,0000.0,0014.19,0008.04,0007.45
2022-10-16 10:07:00,,0833.6,5.00,0.00,30.2,28.6,00.0,39.1,32.0,16.8,0000.0,0014.27,0007.96,0007.43
2022-10-16 10:08:00,,0833.6,5.02,0.00,30.2,28.6,00.0,39.0,32.0,16.8,0000.0,0013.70,0007.91,0007.42
2022-10-16 10:09:00,,0833.6,4.98,0.00,30.2,28.6,00.0,39.0,32.0,16.8,0000.0,0013.70,0007.88,0007.40
2022-10-16 10:10:00,,0833.6,5.02,0.00,30.2,28.6,00.0,39.0,32.0,16.9,0001.2,0013.97,0007.87,0007.38
2022-10-16 10:11:00,,0833.6,4.98,0.00,30.2,28.6,00.0,39.0,32.0,16.9,0000.0,0013.64,0007.85,0007.36
2022-10-16 10:12:00,,0833.6,5.01,0.00,30.2,28.6,00.0,39.0,32.0,16.9,0000.0,0014.01,0007.80,0007.33
2022-10-16 10:13:00,,0833.6,4.99,0.00,30.2,28.6,00.0,39.0,32.0,16.9,0000.0,0014.45,0007.81,0007.31
2022-10-16 10:14:00,,0833.5,5.01,0.00,30.2,28.6,00.0,39.0,32.0,16.9,0000.0,0014.61,0007.86,0007.31
2022-10-16 10:15:00,,0833.6,4.99,0.00,30.2,28.6,00.0,39.0,31.9,16.9,0000.0,0013.87,0007.84,0007.29
2022-10-16 10:16:00,,0833.6,5.01,0.00,30.2,28.6,00.0,39.0,31.9,16.9,0000.0,0013.41,0007.81,0007.27
2022-10-16 10:17:00,,0833.6,4.99,0.00,30.2,28.6,00.0,39.0,31.9,16.9,0000.0,0013.03,0007.82,0007.26
2022-10-16 10:18:00,,0833.5,5.00,0.00,30.2,28.6,00.0,39.0,32.0,16.9,0000.0,0012.80,0007.84,0007.27
2022-10-16 10:19:00,,0833.6,5.00,0.00,30.2,28.6,00.0,39.0,32.0,16.9,0000.0,0012.83,0007.86,0007.26
2022-10-16 10:20:00,,0833.5,5.01,0.00,30.2,28.6,00.0,39.0,31.9,16.9,0000.0,0012.60,0007.84,0007.26
2022-10-16 10:21:00,,0833.5,4.99,0.00,30.1,28.5,00.0,39.0,31.9,16.9,0000.0,0012.36,0007.84,0007.26
2022-10-16 10:22:00,,0833.6,5.01,0.00,30.1,28.5,00.0,39.0,31.9,16.9,0000.0,0012.50,0007.82,0007.27
2022-10-16 10:23:00,,0833.6,5.00,0.00,30.1,28.6,00.0,39.0,31.9,16.9,0000.0,0012.44,0007.85,0007.28
2022-10-16 10:24:00,,0833.6,5.00,0.00,30.1,28.6,00.0,39.0,31.9,17.0,0000.0,0012.70,0007.92,0007.31
2022-10-16 10:25:00,,0833.6,5.00,0.00,30.1,28.6,00.0,39.0,31.9,17.0,0000.0,0012.68,0007.92,0007.32
2022-10-16 10:26:00,,0833.6,4.99,0.00,30.1,28.5,00.0,39.0,31.9,17.0,0000.0,0012.93,0007.94,0007.33
2022-10-16 10:27:00,,0833.6,5.01,0.00,30.1,28.5,00.0,39.0,31.9,17.0,0000.0,0013.01,0007.96,0007.35
2022-10-16 10:28:00,,0833.6,4.99,0.00,30.1,28.5,00.0,39.0,31.9,17.0,0000.0,0012.92,0007.98,0007.38
2022-10-16 10:29:00,,0833.6,5.01,0.00,30.1,28.5,00.0,39.0,31.9,17.0,0000.0,0012.97,0008.02,0007.41
2022-10-16 10:30:00,,0833.6,4.99,0.00,30.1,28.5,00.0,39.0,31.9,17.0,0000.6,0013.06,0008.05,0007.44
2022-10-16 10:31:00,,0833.6,4.99,0.00,30.1,28.5,00.0,39.0,31.9,17.1,0002.0,0013.33,0008.12,0007.48
2022-10-16 10:32:00,,0833.6,5.01,0.00,30.1,28.5,00.0,39.0,31.9,17.1,0001.5,0013.48,0008.16,0007.54
2022-10-16 10:33:00,,0833.6,5.00,0.00,30.1,28.5,00.0,38.9,31.9,17.1,0001.1,0013.23,0008.23,0007.59
2022-10-16 10:34:00,,0833.6,5.00,0.00,30.1,28.5,00.0,38.9,31.9,17.1,0000.2,0013.77,0008.31,0007.63
2022-10-16 10:35:00,,0833.6,4.99,0.00,30.1,28.5,00.0,38.9,31.9,17.1,0000.0,0013.02,0008.29,0007.66
2022-10-16 10:36:00,,0833.6,5.02,0.00,30.1,28.5,00.0,38.9,31.8,17.2,0000.0,0012.92,0008.29,0007.70
2022-10-16 10:37:00,,0833.6,4.99,0.00,30.1,28.5,00.0,38.9,31.9,17.2,0000.0,0012.89,0008.36,0007.76
2022-10-16 10:38:00,,0833.6,5.01,0.00,30.1,28.5,00.0,38.9,31.9,17.2,0000.0,0012.82,0008.42,0007.81
2022-10-16 10:39:00,,0833.6,5.00,0.00,30.1,28.5,00.0,38.9,31.9,17.2,0000.0,0012.92,0008.48,0007.84
2022-10-16 10:40:00,,0833.6,5.00,0.00,30.1,28.5,00.0,38.9,31.9,17.2,0000.0,0012.94,0008.48,0007.86
2022-10-16 10:41:00,,0833.6,5.01,0.00,30.1,28.5,00.0,38.9,31.9,17.2,0000.0,0013.35,0008.53,0007.89
2022-10-16 10:42:00,,0833.6,5.00,0.00,30.1,28.5,00.0,38.9,31.9,17.3,0000.0,0013.31,0008.59,0007.93
2022-10-16 10:43:00,,0833.6,4.99,0.00,30.1,28.5,00.0,38.9,31.8,17.3,0000.0,0013.19,0008.62,0007.92
2022-10-16 10:44:00,,0833.6,5.02,0.00,30.1,28.5,00.0,38.9,31.8,17.3,0000.0,0013.94,0008.62,0007.91
2022-10-16 10:45:00,,0833.6,4.99,0.00,30.1,28.5,00.0,38.9,31.8,17.3,0000.3,0013.68,0008.59,0007.90
2022-10-16 10:46:00,,0833.6,5.00,0.00,30.1,28.5,00.0,38.9,31.9,17.3,0002.8,0013.61,0008.59,0007.89
2022-10-16 10:47:00,,0833.6,5.01,0.00,30.1,28.5,00.0,38.9,31.8,17.3,0002.7,0013.65,0008.57,0007.88
2022-10-16 10:48:00,,0833.6,4.99,0.00,30.0,28.5,00.0,38.9,31.8,17.3,0001.3,0013.41,0008.49,0007.85
2022-10-16 10:49:00,,0833.7,5.01,0.00,30.0,28.5,00.0,38.9,31.8,17.3,0001.0,0013.86,0008.47,0007.83
2022-10-16 10:50:00,,0833.6,5.00,0.00,30.1,28.5,00.0,38.9,31.9,17.3,0002.6,0014.13,0008.45,0007.82
2022-10-16 10:51:00,,0833.6,4.99,0.00,30.1,28.5,00.0,38.9,31.9,17.3,0002.3,0014.04,0008.44,0007.81
2022-10-16 10:52:00,,0833.6,5.01,0.00,30.1,28.5,00.0,38.9,31.8,17.3,0002.0,0013.58,0008.43,0007.82
2022-10-16 10:53:00,,0833.6,5.00,0.00,30.1,28.5,00.0,38.9,31.8,17.3,0001.8,0013.42,0008.37,0007.80
2022-10-16 10:54:00,,0833.6,5.00,0.00,30.1,28.5,00.0,38.9,31.9,17.3,0000.7,0013.22,0008.34,0007.81
2022-10-16 10:55:00,,0833.6,5.00,0.00,30.1,28.5,00.0,38.9,31.8,17.3,0001.3,0012.50,0008.32,0007.83
2022-10-16 10:56:00,,0833.6,5.00,0.00,30.0,28.5,00.0,38.9,31.8,17.3,0001.9,0011.84,0008.31,0007.85
2022-10-16 10:57:00,,0833.6,5.00,0.00,30.0,28.5,00.0,38.9,31.8,17.3,0001.1,0011.82,0008.32,0007.87
2022-10-16 10:58:00,,0833.6,5.01,0.00,30.0,28.5,00.0,38.9,31.8,17.3,0002.2,0011.87,0008.33,0007.87
2022-10-16 10:59:00,,0833.6,5.01,0.00,30.0,28.5,00.0,38.9,31.8,17.3,0002.4,0012.07,0008.36,0007.88
